This is the latest recevied weather packets stored in our database for station/object KF0EZB. If no packets are shown the sender has not sent any weather packets the latest 1 day(s).
| Time | Temp. | Humidity | Pressure | Rain* | Wind** | Luminosity | Snow |
|---|---|---|---|---|---|---|---|
| 1777977597 | 11.11° C | 50% | 1008.5 hPa | 0 mm | 0.45 m/s, 83° | 0 W/m² | - |
| 1777977294 | 11.11° C | 50% | 1008.8 hPa | 0 mm | 2.24 m/s, 63° | 0 W/m² | - |
| 1777976991 | 11.11° C | 50% | 1008.3 hPa | 0 mm | 3.13 m/s, 38° | 0 W/m² | - |
| 1777976688 | 11.11° C | 50% | 1008.1 hPa | 0 mm | 4.47 m/s, 77° | 0 W/m² | - |
| 1777976385 | 11.11° C | 50% | 1008.3 hPa | 0 mm | 2.24 m/s, 31° | 0 W/m² | - |
| 1777976078 | 11.11° C | 51% | 1008.2 hPa | 0 mm | 1.34 m/s, 43° | 0 W/m² | - |
| 1777975774 | 11.11° C | 51% | 1008 hPa | 0 mm | 1.79 m/s, 113° | 0 W/m² | - |
| 1777975472 | 11.11° C | 51% | 1007.8 hPa | 0 mm | 2.68 m/s, 106° | 0 W/m² | - |
| 1777975167 | 11.67° C | 51% | 1008.1 hPa | 0 mm | 3.13 m/s, 106° | 0 W/m² | - |
| 1777974865 | 11.67° C | 51% | 1008 hPa | 0 mm | 1.34 m/s, 32° | 0 W/m² | - |
| 1777974560 | 11.67° C | 51% | 1008 hPa | 0 mm | 2.68 m/s, 40° | 0 W/m² | - |
| 1777974258 | 11.67° C | 52% | 1008 hPa | 0 mm | 2.68 m/s, 53° | 0 W/m² | - |
| 1777973954 | 11.67° C | 52% | 1007.9 hPa | 0 mm | 0.89 m/s, 69° | 0 W/m² | - |
| 1777973651 | 11.67° C | 53% | 1007.6 hPa | 0 mm | 1.79 m/s, 38° | 0 W/m² | - |
| 1777973348 | 11.67° C | 52% | 1007.4 hPa | 0 mm | 3.13 m/s, 35° | 0 W/m² | - |
| 1777973046 | 11.67° C | 52% | 1007.3 hPa | 0 mm | 1.34 m/s, 75° | 0 W/m² | - |
| 1777972743 | 11.67° C | 52% | 1007 hPa | 0 mm | 3.13 m/s, 39° | 0 W/m² | - |
| 1777972441 | 11.67° C | 51% | 1007.2 hPa | 0 mm | 4.02 m/s, 70° | 0 W/m² | - |
| 1777972138 | 11.67° C | 51% | 1007 hPa | 0 mm | 3.13 m/s, 49° | 0 W/m² | - |
| 1777971836 | 11.67° C | 51% | 1007 hPa | 0 mm | 3.58 m/s, 38° | 0 W/m² | - |
| 1777971533 | 12.22° C | 50% | 1006.9 hPa | 0 mm | 4.02 m/s, 48° | 0 W/m² | - |
| 1777971231 | 12.22° C | 50% | 1006.8 hPa | 0 mm | 4.47 m/s, 86° | 0 W/m² | - |
| 1777970929 | 12.22° C | 50% | 1006.8 hPa | 0 mm | 1.79 m/s, 56° | 0 W/m² | - |
| 1777970627 | 12.22° C | 50% | 1007.1 hPa | 0 mm | 1.79 m/s, 85° | 0 W/m² | - |
| 1777970324 | 12.22° C | 50% | 1006.9 hPa | 0 mm | 1.79 m/s, 128° | 0 W/m² | - |
* Rain latest hour (hover to see other rain measurements)
** Current wind speed in m/s (hover to see current wind gust speed)